| time (UTC) | temp F | wind direction | speed knots | gust knots | rain 1hr in | rain 24hr in | rain mn in | humidity % | barometer mb |
| 20260505111509 | 57 | 49 | 9.6 | 16.5 | 0.00 | 0.00 | 0.00 | 80 | 1016.3 |
| 20260505101503 | 55 | 63 | 13.0 | 20.9 | 0.00 | 0.00 | 0.00 | 81 | 1016.5 |
| 20260505100058 | 55 | 37 | 13.0 | 20.9 | 0.00 | 0.00 | 0.00 | 83 | 1016.4 |
| 20260505094555 | 54 | 34 | 12.2 | 20.9 | 0.00 | 0.00 | 0.00 | 85 | 1016.5 |
| 20260505093053 | 54 | 34 | 12.2 | 20.9 | 0.00 | 0.00 | 0.00 | 86 | 1016.3 |
| 20260505091551 | 54 | 47 | 12.2 | 20.0 | 0.00 | 0.00 | 0.00 | 87 | 1016.2 |
| 20260505090054 | 54 | 41 | 11.3 | 20.0 | 0.00 | 0.00 | 0.00 | 87 | 1016.2 |
| 20260505084551 | 54 | 49 | 14.8 | 20.0 | 0.00 | 0.00 | 0.00 | 87 | 1016.2 |
| 20260505083100 | 54 | 11 | 13.9 | 19.1 | 0.00 | 0.00 | 0.00 | 88 | 1016.1 |
| 20260505081548 | 53 | 46 | 11.3 | 18.2 | 0.00 | 0.00 | 0.00 | 88 | 1016.0 |
| 20260505080042 | 53 | 52 | 12.2 | 16.5 | 0.00 | 0.00 | 0.00 | 88 | 1016.1 |
| 20260505074543 | 53 | 37 | 10.4 | 17.4 | 0.00 | 0.00 | 0.00 | 89 | 1016.0 |
| 20260505073038 | 53 | 27 | 9.6 | 14.8 | 0.00 | 0.00 | 0.00 | 88 | 1015.9 |
| 20260505071540 | 52 | 21 | 10.4 | 15.6 | 0.00 | 0.00 | 0.00 | 88 | 1015.9 |
| 20260505070045 | 53 | 18 | 7.8 | 13.9 | 0.00 | 0.00 | 0.00 | 89 | 1015.8 |
| 20260505064551 | 53 | 14 | 8.7 | 14.8 | 0.00 | 0.00 | 0.00 | 89 | 1015.8 |
| 20260505063033 | 52 | 25 | 7.8 | 16.5 | 0.00 | 0.00 | 0.00 | 89 | 1015.6 |
| 20260505061538 | 52 | 14 | 9.6 | 14.8 | 0.00 | 0.00 | 0.00 | 89 | 1015.6 |
| 20260505060030 | 52 | 41 | 8.7 | 14.8 | 0.00 | 0.00 | 0.00 | 89 | 1015.6 |
| 20260505054526 | 51 | 33 | 8.7 | 14.8 | 0.00 | 0.02 | 0.00 | 89 | 1015.5 |
| 20260505053023 | 51 | 27 | 8.7 | 14.8 | 0.00 | 0.02 | 0.00 | 89 | 1015.6 |
| 20260505051521 | 51 | 13 | 7.0 | 12.2 | 0.00 | 0.02 | 0.00 | 89 | 1015.5 |
| 20260505041525 | 51 | 15 | 6.1 | 11.3 | 0.00 | 0.02 | 0.00 | 89 | 1015.5 |
| 20260505040015 | 51 | 37 | 6.1 | 12.2 | 0.00 | 0.02 | 0.00 | 89 | 1015.6 |
| 20260505034513 | 51 | 30 | 6.1 | 13.0 | 0.00 | 0.02 | 0.00 | 89 | 1015.6 |
| 20260505033015 | 51 | 40 | 6.1 | 12.2 | 0.00 | 0.02 | 0.00 | 88 | 1015.5 |
| 20260505031510 | 51 | 71 | 5.2 | 12.2 | 0.00 | 0.02 | 0.00 | 88 | 1015.7 |
| 20260505030008 | 51 | 20 | 4.3 | 8.7 | 0.00 | 0.02 | 0.00 | 88 | 1015.7 |
| 20260505024524 | 51 | 37 | 5.2 | 10.4 | 0.00 | 0.02 | 0.00 | 88 | 1015.7 |
| 20260505023006 | 51 | 14 | 6.1 | 10.4 | 0.00 | 0.02 | 0.00 | 88 | 1015.7 |
| 20260505021506 | 52 | 21 | 6.1 | 10.4 | 0.00 | 0.02 | 0.00 | 88 | 1015.8 |
| 20260505020004 | 52 | 23 | 4.3 | 8.7 | 0.00 | 0.02 | 0.00 | 88 | 1015.8 |
| 20260505014502 | 52 | 44 | 3.5 | 8.7 | 0.00 | 0.02 | 0.00 | 88 | 1016.0 |
| 20260505013102 | 52 | 37 | 6.1 | 10.4 | 0.00 | 0.02 | 0.00 | 88 | 1016.0 |
| 20260505011559 | 53 | 15 | 5.2 | 11.3 | 0.00 | 0.02 | 0.00 | 88 | 1016.3 |
| 20260505010056 | 52 | 23 | 4.3 | 11.3 | 0.00 | 0.02 | 0.00 | 88 | 1016.4 |
| 20260505004555 | 52 | 25 | 5.2 | 8.7 | 0.00 | 0.02 | 0.00 | 88 | 1016.4 |
| 20260505003056 | 52 | 13 | 5.2 | 9.6 | 0.00 | 0.02 | 0.00 | 88 | 1016.4 |
| 20260505001555 | 52 | 30 | 3.5 | 7.8 | 0.00 | 0.02 | 0.00 | 88 | 1016.5 |
| 20260505000056 | 52 | 40 | 4.3 | 10.4 | 0.00 | 0.02 | 0.00 | 87 | 1016.6 |
| 20260504234612 | 52 | 39 | 5.2 | 9.6 | 0.00 | 0.02 | 0.00 | 87 | 1016.7 |
| 20260504233050 | 52 | 34 | 7.0 | 11.3 | 0.00 | 0.02 | 0.00 | 87 | 1016.7 |
| 20260504231559 | 52 | 37 | 7.8 | 13.9 | 0.00 | 0.02 | 0.00 | 87 | 1016.7 |
| 20260504230045 | 52 | 35 | 7.0 | 13.0 | 0.00 | 0.02 | 0.00 | 87 | 1016.6 |
| 20260504224543 | 52 | 39 | 7.0 | 9.6 | 0.00 | 0.02 | 0.02 | 87 | 1016.8 |
| 20260504223043 | 52 | 20 | 6.1 | 11.3 | 0.00 | 0.02 | 0.02 | 87 | 1016.8 |
| 20260504221548 | 52 | 58 | 4.3 | 8.7 | 0.00 | 0.02 | 0.02 | 87 | 1016.8 |
| 20260504220041 | 52 | 40 | 4.3 | 7.8 | 0.00 | 0.02 | 0.02 | 87 | 1016.7 |
| 20260504214543 | 52 | 46 | 4.3 | 7.0 | 0.00 | 0.02 | 0.02 | 86 | 1016.6 |
| 20260504213040 | 52 | 51 | 5.2 | 8.7 | 0.00 | 0.02 | 0.02 | 86 | 1016.8 |
| 20260504211548 | 52 | 37 | 7.0 | 11.3 | 0.00 | 0.02 | 0.02 | 86 | 1016.9 |
| 20260504210052 | 53 | 49 | 7.8 | 11.3 | 0.00 | 0.02 | 0.02 | 86 | 1016.8 |
| 20260504204536 | 53 | 33 | 7.0 | 10.4 | 0.00 | 0.02 | 0.02 | 85 | 1016.8 |
| 20260504203037 | 53 | 37 | 7.0 | 10.4 | 0.00 | 0.02 | 0.02 | 85 | 1016.9 |
| 20260504201530 | 53 | 49 | 6.1 | 9.6 | 0.00 | 0.02 | 0.02 | 85 | 1016.8 |
| 20260504200028 | 53 | 40 | 4.3 | 7.0 | 0.00 | 0.02 | 0.02 | 83 | 1016.5 |
| 20260504194539 | 54 | 65 | 2.6 | 7.0 | 0.00 | 0.02 | 0.02 | 83 | 1016.4 |
| 20260504193028 | 54 | 39 | 4.3 | 7.0 | 0.00 | 0.02 | 0.02 | 81 | 1016.3 |
| 20260504191528 | 55 | 16 | 3.5 | 7.0 | 0.00 | 0.02 | 0.02 | 81 | 1016.2 |
| 20260504190023 | 56 | 44 | 4.3 | 7.0 | 0.00 | 0.02 | 0.02 | 80 | 1016.1 |
| 20260504184525 | 57 | 60 | 3.5 | 6.1 | 0.00 | 0.02 | 0.02 | 79 | 1016.0 |
| 20260504183020 | 57 | 37 | 2.6 | 5.2 | 0.00 | 0.02 | 0.02 | 79 | 1016.1 |
| 20260504181519 | 58 | 11 | 0.9 | 4.3 | 0.00 | 0.02 | 0.02 | 79 | 1016.0 |
| 20260504180020 | 57 | 6 | 3.5 | 5.2 | 0.00 | 0.02 | 0.02 | 79 | 1015.9 |
| 20260504174518 | 58 | 44 | 2.6 | 5.2 | 0.00 | 0.02 | 0.02 | 79 | 1016.0 |
| 20260504173019 | 58 | 52 | 3.5 | 6.1 | 0.00 | 0.02 | 0.02 | 78 | 1015.7 |
| 20260504171514 | 59 | 65 | 3.5 | 7.0 | 0.00 | 0.02 | 0.02 | 78 | 1015.8 |
| 20260504140115 | 62 | 149 | 1.7 | 5.2 | 0.00 | 0.02 | 0.02 | 80 | 1015.6 |